TimeEDT,TemperatureF,Dew PointF,Humidity,Sea Level PressureIn,VisibilityMPH,Wind Direction,Wind SpeedMPH,Gust SpeedMPH,PrecipitationIn,Events,Conditions,WindDirDegrees,DateUTC
12:53 AM,42.1,24.1,49,30.35,10.0,Calm,Calm,-,N/A,,Mostly Cloudy,0,2013-10-29 04:53:00
1:53 AM,37.9,25.0,60,30.35,10.0,Calm,Calm,-,N/A,,Partly Cloudy,0,2013-10-29 05:53:00
2:53 AM,36.0,25.0,64,30.35,10.0,NNW,3.5,-,N/A,,Clear,330,2013-10-29 06:53:00
3:53 AM,35.1,24.1,64,30.36,10.0,NNW,3.5,-,N/A,,Clear,340,2013-10-29 07:53:00
4:53 AM,35.1,24.1,64,30.37,10.0,NNW,3.5,-,N/A,,Overcast,340,2013-10-29 08:53:00
5:53 AM,36.0,24.1,62,30.39,10.0,NNW,3.5,-,N/A,,Overcast,340,2013-10-29 09:53:00
6:53 AM,36.0,24.1,62,30.39,10.0,NNW,3.5,-,N/A,,Overcast,340,2013-10-29 10:53:00
7:53 AM,37.0,25.0,62,30.40,10.0,North,3.5,-,N/A,,Overcast,350,2013-10-29 11:53:00
8:53 AM,39.0,26.1,60,30.41,10.0,Variable,4.6,-,N/A,,Overcast,0,2013-10-29 12:53:00
9:53 AM,43.0,28.9,58,30.42,10.0,Variable,3.5,-,N/A,,Scattered Clouds,0,2013-10-29 13:53:00
10:53 AM,48.0,30.9,52,30.41,10.0,North,5.8,-,N/A,,Mostly Cloudy,360,2013-10-29 14:53:00
11:53 AM,50.0,32.0,50,30.40,10.0,North,4.6,-,N/A,,Clear,350,2013-10-29 15:53:00
12:53 PM,51.1,30.0,44,30.37,10.0,Variable,3.5,-,N/A,,Clear,0,2013-10-29 16:53:00
1:53 PM,51.1,25.0,36,30.36,10.0,Variable,6.9,-,N/A,,Mostly Cloudy,0,2013-10-29 17:53:00
2:53 PM,52.0,24.1,34,30.36,10.0,West,5.8,-,N/A,,Scattered Clouds,260,2013-10-29 18:53:00
3:53 PM,52.0,24.1,34,30.37,10.0,West,5.8,-,N/A,,Clear,280,2013-10-29 19:53:00
4:53 PM,51.1,23.0,33,30.37,10.0,Calm,Calm,-,N/A,,Partly Cloudy,0,2013-10-29 20:53:00
5:53 PM,43.0,34.0,71,30.38,10.0,NE,4.6,-,N/A,,Clear,50,2013-10-29 21:53:00
6:53 PM,41.0,33.1,73,30.38,10.0,Calm,Calm,-,N/A,,Clear,0,2013-10-29 22:53:00
7:53 PM,35.1,30.9,85,30.39,10.0,Calm,Calm,-,N/A,,Clear,0,2013-10-29 23:53:00
8:53 PM,32.0,28.9,88,30.39,10.0,Calm,Calm,-,N/A,,Clear,0,2013-10-30 00:53:00
9:53 PM,32.0,30.0,92,30.38,10.0,Calm,Calm,-,N/A,,Clear,0,2013-10-30 01:53:00
10:53 PM,30.9,30.0,96,30.38,10.0,Calm,Calm,-,N/A,,Clear,0,2013-10-30 02:53:00
11:53 PM,30.0,28.9,96,30.38,10.0,Calm,Calm,-,N/A,,Clear,0,2013-10-30 03:53:00